START_TIME,STEP,MOV.,EG07,t_acc.,EG08,t_acc.,EG09,t_acc.,EB05,t_acc.,EBP05,t_acc.
1979-08-05 12:00:21.430 ,0,0,2.,1.2,1.,1.2,0.,1.2,,0.0,,0.0
1979-08-05 12:00:22.630 ,0,0,0.,1.2,0.,1.2,0.,1.2,,0.0,,0.0
1979-08-05 12:00:23.830 ,0,0,0.,1.2,0.,1.2,0.,1.2,,0.0,,0.0
1979-08-05 12:00:25.030 ,0,0,0.,1.2,0.,1.2,0.,1.2,,0.0,,0.0
1979-08-05 12:00:26.230 ,0,0,1.,1.2,0.,1.2,0.,1.2,,0.0,,0.0
1979-08-05 12:00:27.430 ,0,0,1.,1.2,0.,1.2,0.,1.2,,0.0,,0.0
1979-08-05 12:00:28.630 ,0,0,0.,1.2,0.,1.2,0.,1.2,,0.0,,0.0
1979-08-05 12:00:29.830 ,0,0,1.,1.2,1.,1.2,1.,1.2,,0.0,,0.0
1979-08-05 12:00:31.030 ,0,0,0.,1.2,0.,1.2,0.,1.2,,0.0,,0.0
1979-08-05 12:00:32.230 ,0,0,0.,1.2,0.,1.2,0.,1.2,,0.0,,0.0
1979-08-05 12:00:33.430 ,0,0,0.,1.2,0.,1.2,0.,1.2,,0.0,,0.0
1979-08-05 12:00:34.630 ,0,0,0.,1.2,0.,1.2,0.,1.2,,0.0,,0.0
1979-08-05 12:00:35.830 ,0,0,0.,1.2,0.,1.2,0.,1.2,,0.0,,0.0
1979-08-05 12:00:37.030 ,0,0,1.,1.2,0.,1.2,0.,1.2,,0.0,,0.0
1979-08-05 12:00:38.230 ,0,0,1.,1.2,0.,1.2,0.,1.2,,0.0,,0.0
1979-08-05 12:00:39.430 ,0,0,2.,1.2,0.,1.2,0.,1.2,,0.0,,0.0
1979-08-05 12:00:40.630 ,0,0,1.,1.2,1.,1.2,0.,1.2,,0.0,,0.0
1979-08-05 12:00:41.830 ,0,0,0.,1.2,0.,1.2,0.,1.2,,0.0,,0.0
1979-08-05 12:00:43.030 ,0,0,0.,1.2,0.,1.2,0.,1.2,,0.0,,0.0
1979-08-05 12:00:44.230 ,0,0,1.,1.2,0.,1.2,0.,1.2,,0.0,,0.0
1979-08-05 12:00:45.430 ,1,0,0.,1.2,0.,1.2,0.,1.2,,0.0,,0.0
1979-08-05 12:00:46.630 ,1,0,0.,1.2,0.,1.2,0.,1.2,,0.0,,0.0
1979-08-05 12:00:47.830 ,1,0,2.,1.2,0.,1.2,0.,1.2,,0.0,,0.0
1979-08-05 12:00:49.030 ,1,0,0.,1.2,0.,1.2,0.,1.2,,0.0,,0.0
1979-08-05 12:00:50.230 ,1,0,1.,1.2,0.,1.2,0.,1.2,,0.0,,0.0
1979-08-05 12:00:51.430 ,1,0,0.,1.2,0.,1.2,0.,1.2,,0.0,,0.0
1979-08-05 12:00:52.630 ,1,0,1.,1.2,0.,1.2,0.,1.2,,0.0,,0.0
1979-08-05 12:00:53.830 ,1,0,0.,1.2,0.,1.2,0.,1.2,,0.0,,0.0
1979-08-05 12:00:55.030 ,1,0,0.,1.2,0.,1.2,0.,1.2,,0.0,,0.0
1979-08-05 12:00:56.230 ,1,0,0.,1.2,0.,1.2,0.,1.2,,0.0,,0.0
1979-08-05 12:00:57.430 ,1,0,2.,1.2,0.,1.2,0.,1.2,,0.0,,0.0
1979-08-05 12:00:58.630 ,1,0,0.,1.2,0.,1.2,0.,1.2,,0.0,,0.0
1979-08-05 12:00:59.830 ,1,0,1.,1.2,1.,1.2,0.,1.2,,0.0,,0.0
1979-08-05 12:01:01.030 ,1,0,1.,1.2,0.,1.2,0.,1.2,,0.0,,0.0
1979-08-05 12:01:02.230 ,1,0,1.,1.2,1.,1.2,0.,1.2,,0.0,,0.0
1979-08-05 12:01:03.430 ,1,0,1.,1.2,1.,1.2,1.,1.2,,0.0,,0.0
1979-08-05 12:01:04.630 ,1,0,0.,1.2,0.,1.2,0.,1.2,,0.0,,0.0
1979-08-05 12:01:05.830 ,1,0,0.,1.2,0.,1.2,0.,1.2,,0.0,,0.0
1979-08-05 12:01:07.030 ,1,0,0.,1.2,0.,1.2,0.,1.2,,0.0,,0.0
1979-08-05 12:01:08.230 ,1,0,2.,1.2,2.,1.2,0.,1.2,,0.0,,0.0
1979-08-05 12:01:09.430 ,1,0,0.,1.2,0.,1.2,0.,1.2,,0.0,,0.0
1979-08-05 12:01:10.630 ,1,0,1.,1.2,0.,1.2,0.,1.2,,0.0,,0.0
1979-08-05 12:01:11.830 ,1,0,0.,1.2,0.,1.2,0.,1.2,,0.0,,0.0
1979-08-05 12:01:13.030 ,1,0,1.,1.2,0.,1.2,0.,1.2,,0.0,,0.0
1979-08-05 12:01:14.230 ,1,0,0.,1.2,0.,1.2,0.,1.2,,0.0,,0.0
1979-08-05 12:01:15.430 ,1,0,0.,1.2,0.,1.2,0.,1.2,,0.0,,0.0
1979-08-05 12:01:16.630 ,1,0,0.,1.2,0.,1.2,0.,1.2,,0.0,,0.0
1979-08-05 12:01:17.830 ,1,0,1.,1.2,1.,1.2,0.,1.2,,0.0,,0.0
1979-08-05 12:01:19.030 ,1,0,0.,1.2,0.,1.2,0.,1.2,,0.0,,0.0
1979-08-05 12:01:20.230 ,1,0,0.,1.2,0.,1.2,0.,1.2,,0.0,,0.0
1979-08-05 12:01:21.430 ,1,0,1.,1.2,0.,1.2,0.,1.2,,0.0,,0.0
1979-08-05 12:01:22.630 ,1,0,1.,1.2,0.,1.2,0.,1.2,,0.0,,0.0
1979-08-05 12:01:23.830 ,1,0,0.,1.2,0.,1.2,0.,1.2,,0.0,,0.0
1979-08-05 12:01:25.030 ,1,0,0.,1.2,0.,1.2,0.,1.2,,0.0,,0.0
1979-08-05 12:01:26.230 ,1,0,1.,1.2,0.,1.2,0.,1.2,,0.0,,0.0
1979-08-05 12:01:27.430 ,1,0,0.,1.2,0.,1.2,0.,1.2,,0.0,,0.0
1979-08-05 12:01:28.630 ,1,0,0.,1.2,0.,1.2,0.,1.2,,0.0,,0.0
1979-08-05 12:01:29.830 ,1,0,0.,1.2,0.,1.2,0.,1.2,,0.0,,0.0
1979-08-05 12:01:31.030 ,1,0,0.,1.2,0.,1.2,0.,1.2,,0.0,,0.0
1979-08-05 12:01:32.230 ,1,0,0.,1.2,0.,1.2,0.,1.2,,0.0,,0.0
1979-08-05 12:01:33.430 ,2,0,1.,1.2,0.,1.2,0.,1.2,,0.0,,0.0
1979-08-05 12:01:34.630 ,2,0,0.,1.2,0.,1.2,0.,1.2,,0.0,,0.0
1979-08-05 12:01:35.830 ,2,0,0.,1.2,0.,1.2,0.,1.2,,0.0,,0.0
1979-08-05 12:01:37.030 ,2,0,0.,1.2,0.,1.2,0.,1.2,,0.0,,0.0
1979-08-05 12:01:38.230 ,2,0,0.,1.2,0.,1.2,0.,1.2,,0.0,,0.0
1979-08-05 12:01:39.430 ,2,0,0.,1.2,0.,1.2,0.,1.2,,0.0,,0.0
1979-08-05 12:01:40.630 ,2,0,0.,1.2,0.,1.2,0.,1.2,,0.0,,0.0
1979-08-05 12:01:41.830 ,2,0,0.,1.2,0.,1.2,0.,1.2,,0.0,,0.0
1979-08-05 12:01:43.030 ,2,0,0.,1.2,0.,1.2,0.,1.2,,0.0,,0.0
1979-08-05 12:01:44.230 ,2,0,0.,1.2,0.,1.2,0.,1.2,,0.0,,0.0
1979-08-05 12:01:45.430 ,2,0,0.,1.2,0.,1.2,0.,1.2,,0.0,,0.0
1979-08-05 12:01:46.630 ,2,0,1.,1.2,1.,1.2,0.,1.2,,0.0,,0.0
1979-08-05 12:01:47.830 ,2,0,1.,1.2,0.,1.2,0.,1.2,,0.0,,0.0
1979-08-05 12:01:49.030 ,2,0,0.,1.2,0.,1.2,0.,1.2,,0.0,,0.0
1979-08-05 12:01:50.230 ,2,0,1.,1.2,0.,1.2,0.,1.2,,0.0,,0.0
1979-08-05 12:01:51.430 ,2,0,1.,1.2,1.,1.2,1.,1.2,,0.0,,0.0
1979-08-05 12:01:52.630 ,2,0,0.,1.2,0.,1.2,0.,1.2,,0.0,,0.0
1979-08-05 12:01:53.830 ,2,0,0.,1.2,0.,1.2,0.,1.2,,0.0,,0.0
1979-08-05 12:01:55.030 ,2,0,0.,1.2,0.,1.2,0.,1.2,,0.0,,0.0
1979-08-05 12:01:56.230 ,2,0,0.,1.2,0.,1.2,0.,1.2,,0.0,,0.0
1979-08-05 12:01:57.430 ,2,0,2.,1.2,0.,1.2,0.,1.2,,0.0,,0.0
1979-08-05 12:01:58.630 ,2,0,0.,1.2,0.,1.2,0.,1.2,,0.0,,0.0
1979-08-05 12:01:59.830 ,2,0,0.,1.2,0.,1.2,0.,1.2,,0.0,,0.0
1979-08-05 12:02:01.030 ,2,0,0.,1.2,0.,1.2,0.,1.2,,0.0,,0.0
1979-08-05 12:02:02.230 ,2,0,1.,1.2,0.,1.2,0.,1.2,,0.0,,0.0
1979-08-05 12:02:03.430 ,2,0,0.,1.2,0.,1.2,0.,1.2,,0.0,,0.0
1979-08-05 12:02:04.630 ,2,0,0.,1.2,0.,1.2,0.,1.2,,0.0,,0.0
1979-08-05 12:02:05.830 ,2,0,1.,1.2,1.,1.2,1.,1.2,,0.0,,0.0
1979-08-05 12:02:07.030 ,2,0,2.,1.2,1.,1.2,0.,1.2,,0.0,,0.0
1979-08-05 12:02:08.230 ,2,0,0.,1.2,0.,1.2,0.,1.2,,0.0,,0.0
1979-08-05 12:02:09.430 ,2,0,1.,1.2,0.,1.2,0.,1.2,,0.0,,0.0
1979-08-05 12:02:10.630 ,2,0,0.,1.2,0.,1.2,0.,1.2,,0.0,,0.0
1979-08-05 12:02:11.830 ,2,0,0.,1.2,0.,1.2,0.,1.2,,0.0,,0.0
1979-08-05 12:02:13.030 ,2,0,0.,1.2,0.,1.2,0.,1.2,,0.0,,0.0
1979-08-05 12:02:14.230 ,2,0,0.,1.2,0.,1.2,0.,1.2,,0.0,,0.0
1979-08-05 12:02:15.430 ,2,0,1.,1.2,0.,1.2,0.,1.2,,0.0,,0.0
1979-08-05 12:02:16.630 ,2,0,1.,1.2,0.,1.2,0.,1.2,,0.0,,0.0
1979-08-05 12:02:17.830 ,2,0,0.,1.2,0.,1.2,0.,1.2,,0.0,,0.0
1979-08-05 12:02:19.030 ,2,0,0.,1.2,0.,1.2,0.,1.2,,0.0,,0.0
1979-08-05 12:02:20.230 ,2,0,1.,1.2,0.,1.2,0.,1.2,,0.0,,0.0
1979-08-05 12:02:21.430 ,3,0,0.,1.2,0.,1.2,0.,1.2,,0.0,,0.0
1979-08-05 12:02:22.630 ,3,0,0.,1.2,0.,1.2,0.,1.2,,0.0,,0.0
1979-08-05 12:02:23.830 ,3,0,0.,1.2,0.,1.2,0.,1.2,,0.0,,0.0
1979-08-05 12:02:25.030 ,3,0,0.,1.2,0.,1.2,0.,1.2,,0.0,,0.0
1979-08-05 12:02:26.230 ,3,0,0.,1.2,0.,1.2,0.,1.2,,0.0,,0.0
1979-08-05 12:02:27.430 ,3,0,0.,1.2,0.,1.2,0.,1.2,,0.0,,0.0
1979-08-05 12:02:28.630 ,3,0,0.,1.2,0.,1.2,0.,1.2,,0.0,,0.0
1979-08-05 12:02:29.830 ,3,0,0.,1.2,0.,1.2,0.,1.2,,0.0,,0.0
1979-08-05 12:02:31.030 ,3,0,0.,1.2,0.,1.2,0.,1.2,,0.0,,0.0
1979-08-05 12:02:32.230 ,3,0,3.,1.2,1.,1.2,0.,1.2,,0.0,,0.0
1979-08-05 12:02:33.430 ,3,0,0.,1.2,0.,1.2,0.,1.2,,0.0,,0.0
1979-08-05 12:02:34.630 ,3,0,0.,1.2,0.,1.2,0.,1.2,,0.0,,0.0
1979-08-05 12:02:35.830 ,3,0,0.,1.2,0.,1.2,0.,1.2,,0.0,,0.0
1979-08-05 12:02:37.030 ,3,0,0.,1.2,0.,1.2,0.,1.2,,0.0,,0.0
1979-08-05 12:02:38.230 ,3,0,2.,1.2,0.,1.2,0.,1.2,,0.0,,0.0
1979-08-05 12:02:39.430 ,3,0,0.,1.2,0.,1.2,0.,1.2,,0.0,,0.0
1979-08-05 12:02:40.630 ,3,0,0.,1.2,0.,1.2,0.,1.2,,0.0,,0.0
1979-08-05 12:02:41.830 ,3,0,0.,1.2,0.,1.2,0.,1.2,,0.0,,0.0
1979-08-05 12:02:43.030 ,3,0,0.,1.2,0.,1.2,0.,1.2,,0.0,,0.0
1979-08-05 12:02:44.230 ,3,0,2.,1.2,1.,1.2,1.,1.2,,0.0,,0.0
1979-08-05 12:02:45.430 ,3,0,0.,1.2,0.,1.2,0.,1.2,,0.0,,0.0
1979-08-05 12:02:46.630 ,3,0,2.,1.2,1.,1.2,0.,1.2,,0.0,,0.0
1979-08-05 12:02:47.830 ,3,0,1.,1.2,1.,1.2,0.,1.2,,0.0,,0.0
1979-08-05 12:02:49.030 ,3,0,1.,1.2,0.,1.2,0.,1.2,,0.0,,0.0
1979-08-05 12:02:50.230 ,3,0,1.,1.2,0.,1.2,0.,1.2,,0.0,,0.0
1979-08-05 12:02:51.430 ,3,0,0.,1.2,0.,1.2,0.,1.2,,0.0,,0.0
1979-08-05 12:02:52.630 ,3,0,0.,1.2,0.,1.2,0.,1.2,,0.0,,0.0
1979-08-05 12:02:53.830 ,3,0,0.,1.2,0.,1.2,0.,1.2,,0.0,,0.0
1979-08-05 12:02:55.030 ,3,0,0.,1.2,0.,1.2,0.,1.2,,0.0,,0.0
1979-08-05 12:02:56.230 ,3,0,0.,1.2,0.,1.2,0.,1.2,,0.0,,0.0
1979-08-05 12:02:57.430 ,3,0,2.,1.2,1.,1.2,0.,1.2,,0.0,,0.0
1979-08-05 12:02:58.630 ,3,0,1.,1.2,1.,1.2,0.,1.2,,0.0,,0.0
1979-08-05 12:02:59.830 ,3,0,0.,1.2,0.,1.2,0.,1.2,,0.0,,0.0
1979-08-05 12:03:01.030 ,3,0,0.,1.2,0.,1.2,0.,1.2,,0.0,,0.0
1979-08-05 12:03:02.230 ,3,0,0.,1.2,0.,1.2,0.,1.2,,0.0,,0.0
1979-08-05 12:03:03.430 ,3,0,0.,1.2,0.,1.2,0.,1.2,,0.0,,0.0
1979-08-05 12:03:04.630 ,3,0,1.,1.2,0.,1.2,0.,1.2,,0.0,,0.0
1979-08-05 12:03:05.830 ,3,0,1.,1.2,0.,1.2,0.,1.2,,0.0,,0.0
1979-08-05 12:03:07.030 ,3,0,0.,1.2,0.,1.2,0.,1.2,,0.0,,0.0
1979-08-05 12:03:08.230 ,3,0,1.,1.2,1.,1.2,0.,1.2,,0.0,,0.0
1979-08-05 12:03:09.430 ,4,0,0.,1.2,0.,1.2,0.,1.2,,0.0,,0.0
1979-08-05 12:03:10.630 ,4,0,0.,1.2,0.,1.2,0.,1.2,,0.0,,0.0
1979-08-05 12:03:11.830 ,4,0,0.,1.2,0.,1.2,0.,1.2,,0.0,,0.0
1979-08-05 12:03:13.030 ,4,0,1.,1.2,0.,1.2,0.,1.2,,0.0,,0.0
1979-08-05 12:03:14.230 ,4,0,1.,1.2,0.,1.2,0.,1.2,,0.0,,0.0
1979-08-05 12:03:15.430 ,4,0,0.,1.2,0.,1.2,0.,1.2,,0.0,,0.0
1979-08-05 12:03:16.630 ,4,0,0.,1.2,0.,1.2,0.,1.2,,0.0,,0.0
1979-08-05 12:03:17.830 ,4,0,2.,1.2,0.,1.2,0.,1.2,,0.0,,0.0
1979-08-05 12:03:19.030 ,4,0,0.,1.2,0.,1.2,0.,1.2,,0.0,,0.0
1979-08-05 12:03:20.230 ,4,0,0.,1.2,0.,1.2,0.,1.2,,0.0,,0.0
1979-08-05 12:03:21.430 ,4,0,1.,1.2,0.,1.2,0.,1.2,,0.0,,0.0
1979-08-05 12:03:22.630 ,4,0,0.,1.2,0.,1.2,0.,1.2,,0.0,,0.0
1979-08-05 12:03:23.830 ,4,0,0.,1.2,0.,1.2,0.,1.2,,0.0,,0.0
1979-08-05 12:03:25.030 ,4,0,0.,1.2,0.,1.2,0.,1.2,,0.0,,0.0
1979-08-05 12:03:26.230 ,4,0,0.,1.2,0.,1.2,0.,1.2,,0.0,,0.0
1979-08-05 12:03:27.430 ,4,0,2.,1.2,2.,1.2,1.,1.2,,0.0,,0.0
1979-08-05 12:03:28.630 ,4,0,0.,1.2,0.,1.2,0.,1.2,,0.0,,0.0
1979-08-05 12:03:29.830 ,4,0,0.,1.2,0.,1.2,0.,1.2,,0.0,,0.0
1979-08-05 12:03:31.030 ,4,0,1.,1.2,0.,1.2,0.,1.2,,0.0,,0.0
1979-08-05 12:03:32.230 ,4,0,1.,1.2,0.,1.2,0.,1.2,,0.0,,0.0
1979-08-05 12:03:33.430 ,4,0,0.,1.2,0.,1.2,0.,1.2,,0.0,,0.0
1979-08-05 12:03:34.630 ,4,0,2.,1.2,1.,1.2,0.,1.2,,0.0,,0.0
1979-08-05 12:03:35.830 ,4,0,0.,1.2,0.,1.2,0.,1.2,,0.0,,0.0
1979-08-05 12:03:37.030 ,4,0,0.,1.2,0.,1.2,0.,1.2,,0.0,,0.0
1979-08-05 12:03:38.230 ,4,0,1.,1.2,1.,1.2,1.,1.2,,0.0,,0.0
1979-08-05 12:03:39.430 ,4,0,2.,1.2,1.,1.2,0.,1.2,,0.0,,0.0
1979-08-05 12:03:40.630 ,4,0,1.,1.2,0.,1.2,0.,1.2,,0.0,,0.0
1979-08-05 12:03:41.830 ,4,0,0.,1.2,0.,1.2,0.,1.2,,0.0,,0.0
1979-08-05 12:03:43.030 ,4,0,2.,1.2,2.,1.2,1.,1.2,,0.0,,0.0
1979-08-05 12:03:44.230 ,4,0,0.,1.2,0.,1.2,0.,1.2,,0.0,,0.0
1979-08-05 12:03:45.430 ,4,0,1.,1.2,1.,1.2,0.,1.2,,0.0,,0.0
1979-08-05 12:03:46.630 ,4,0,0.,1.2,0.,1.2,0.,1.2,,0.0,,0.0
1979-08-05 12:03:47.830 ,4,0,0.,1.2,0.,1.2,0.,1.2,,0.0,,0.0
1979-08-05 12:03:49.030 ,4,0,0.,1.2,0.,1.2,0.,1.2,,0.0,,0.0
1979-08-05 12:03:50.230 ,4,0,0.,1.2,0.,1.2,0.,1.2,,0.0,,0.0
1979-08-05 12:03:51.430 ,4,0,0.,1.2,0.,1.2,0.,1.2,,0.0,,0.0
1979-08-05 12:03:52.630 ,4,0,0.,1.2,0.,1.2,0.,1.2,,0.0,,0.0
1979-08-05 12:03:53.830 ,4,0,1.,1.2,1.,1.2,0.,1.2,,0.0,,0.0
1979-08-05 12:03:55.030 ,4,0,0.,1.2,0.,1.2,0.,1.2,,0.0,,0.0
1979-08-05 12:03:56.230 ,4,0,0.,1.2,0.,1.2,0.,1.2,,0.0,,0.0
1979-08-05 12:03:57.430 ,5,0,0.,1.2,0.,1.2,0.,1.2,,0.0,,0.0
1979-08-05 12:03:58.630 ,5,0,0.,1.2,0.,1.2,0.,1.2,,0.0,,0.0
1979-08-05 12:03:59.830 ,5,0,0.,1.2,0.,1.2,0.,1.2,,0.0,,0.0
1979-08-05 12:04:01.030 ,5,0,1.,1.2,0.,1.2,0.,1.2,,0.0,,0.0
1979-08-05 12:04:02.230 ,5,0,0.,1.2,0.,1.2,0.,1.2,,0.0,,0.0
1979-08-05 12:04:03.430 ,5,0,1.,1.2,0.,1.2,0.,1.2,,0.0,,0.0
1979-08-05 12:04:04.630 ,5,0,2.,1.2,1.,1.2,0.,1.2,,0.0,,0.0
1979-08-05 12:04:05.830 ,5,0,0.,1.2,0.,1.2,0.,1.2,,0.0,,0.0
1979-08-05 12:04:07.030 ,5,0,1.,1.2,0.,1.2,0.,1.2,,0.0,,0.0
1979-08-05 12:04:08.230 ,5,0,0.,1.2,0.,1.2,0.,1.2,,0.0,,0.0
1979-08-05 12:04:09.430 ,5,0,1.,1.2,0.,1.2,0.,1.2,,0.0,,0.0
1979-08-05 12:04:10.630 ,5,0,0.,1.2,0.,1.2,0.,1.2,,0.0,,0.0
1979-08-05 12:04:11.830 ,5,0,0.,1.2,0.,1.2,0.,1.2,,0.0,,0.0
1979-08-05 12:04:13.030 ,5,0,1.,1.2,0.,1.2,0.,1.2,,0.0,,0.0
1979-08-05 12:04:14.230 ,5,0,0.,1.2,0.,1.2,0.,1.2,,0.0,,0.0
1979-08-05 12:04:15.430 ,5,0,3.,1.2,2.,1.2,0.,1.2,,0.0,,0.0
1979-08-05 12:04:16.630 ,5,0,0.,1.2,0.,1.2,0.,1.2,,0.0,,0.0
1979-08-05 12:04:17.830 ,5,0,0.,1.2,0.,1.2,0.,1.2,,0.0,,0.0
1979-08-05 12:04:19.030 ,5,0,0.,1.2,0.,1.2,0.,1.2,,0.0,,0.0
1979-08-05 12:04:20.230 ,5,0,1.,1.2,0.,1.2,0.,1.2,,0.0,,0.0
1979-08-05 12:04:21.430 ,5,0,1.,1.2,0.,1.2,0.,1.2,,0.0,,0.0
1979-08-05 12:04:22.630 ,5,0,0.,1.2,0.,1.2,0.,1.2,,0.0,,0.0
1979-08-05 12:04:23.830 ,5,0,1.,1.2,0.,1.2,0.,1.2,,0.0,,0.0
1979-08-05 12:04:25.030 ,5,0,0.,1.2,0.,1.2,0.,1.2,,0.0,,0.0
1979-08-05 12:04:26.230 ,5,0,1.,1.2,0.,1.2,0.,1.2,,0.0,,0.0
1979-08-05 12:04:27.430 ,5,0,0.,1.2,0.,1.2,0.,1.2,,0.0,,0.0
1979-08-05 12:04:28.630 ,5,0,1.,1.2,0.,1.2,0.,1.2,,0.0,,0.0
1979-08-05 12:04:29.830 ,5,0,2.,1.2,0.,1.2,0.,1.2,,0.0,,0.0
1979-08-05 12:04:31.030 ,5,0,1.,1.2,0.,1.2,0.,1.2,,0.0,,0.0
1979-08-05 12:04:32.230 ,5,0,2.,1.2,0.,1.2,0.,1.2,,0.0,,0.0
1979-08-05 12:04:33.430 ,5,0,2.,1.2,1.,1.2,0.,1.2,,0.0,,0.0
1979-08-05 12:04:34.630 ,5,0,0.,1.2,0.,1.2,0.,1.2,,0.0,,0.0
1979-08-05 12:04:35.830 ,5,0,0.,1.2,0.,1.2,0.,1.2,,0.0,,0.0
1979-08-05 12:04:37.030 ,5,0,0.,1.2,0.,1.2,0.,1.2,,0.0,,0.0
1979-08-05 12:04:38.230 ,5,0,2.,1.2,1.,1.2,1.,1.2,,0.0,,0.0
1979-08-05 12:04:39.430 ,5,0,0.,1.2,0.,1.2,0.,1.2,,0.0,,0.0
1979-08-05 12:04:40.630 ,5,0,0.,1.2,0.,1.2,0.,1.2,,0.0,,0.0
1979-08-05 12:04:41.830 ,5,0,0.,1.2,0.,1.2,0.,1.2,,0.0,,0.0
1979-08-05 12:04:43.030 ,5,0,0.,1.2,0.,1.2,0.,1.2,,0.0,,0.0
1979-08-05 12:04:44.230 ,5,0,0.,1.2,0.,1.2,0.,1.2,,0.0,,0.0
1979-08-05 12:04:45.430 ,6,0,2.,1.2,1.,1.2,0.,1.2,,0.0,,0.0
1979-08-05 12:04:46.630 ,6,0,0.,1.2,0.,1.2,0.,1.2,,0.0,,0.0
1979-08-05 12:04:47.830 ,6,0,0.,1.2,0.,1.2,0.,1.2,,0.0,,0.0
1979-08-05 12:04:49.030 ,6,0,2.,1.2,0.,1.2,0.,1.2,,0.0,,0.0
1979-08-05 12:04:50.230 ,6,0,1.,1.2,0.,1.2,0.,1.2,,0.0,,0.0
1979-08-05 12:04:51.430 ,6,0,0.,1.2,0.,1.2,0.,1.2,,0.0,,0.0
1979-08-05 12:04:52.630 ,6,0,0.,1.2,0.,1.2,0.,1.2,,0.0,,0.0
1979-08-05 12:04:53.830 ,6,0,1.,1.2,0.,1.2,0.,1.2,,0.0,,0.0
1979-08-05 12:04:55.030 ,6,0,1.,1.2,0.,1.2,0.,1.2,,0.0,,0.0
1979-08-05 12:04:56.230 ,6,0,0.,1.2,0.,1.2,0.,1.2,,0.0,,0.0
1979-08-05 12:04:57.430 ,6,0,1.,1.2,0.,1.2,0.,1.2,,0.0,,0.0
1979-08-05 12:04:58.630 ,6,0,0.,1.2,0.,1.2,0.,1.2,,0.0,,0.0
1979-08-05 12:04:59.830 ,6,0,0.,1.2,0.,1.2,0.,1.2,,0.0,,0.0
1979-08-05 12:05:01.030 ,6,0,0.,1.2,0.,1.2,0.,1.2,,0.0,,0.0
1979-08-05 12:05:02.230 ,6,0,0.,1.2,0.,1.2,0.,1.2,,0.0,,0.0
1979-08-05 12:05:03.430 ,6,0,0.,1.2,0.,1.2,0.,1.2,,0.0,,0.0
1979-08-05 12:05:04.630 ,6,0,0.,1.2,0.,1.2,0.,1.2,,0.0,,0.0
1979-08-05 12:05:05.830 ,6,0,1.,1.2,0.,1.2,0.,1.2,,0.0,,0.0
1979-08-05 12:05:07.030 ,6,0,0.,1.2,0.,1.2,0.,1.2,,0.0,,0.0
1979-08-05 12:05:08.230 ,6,0,1.,1.2,1.,1.2,1.,1.2,,0.0,,0.0
1979-08-05 12:05:09.430 ,6,0,1.,1.2,1.,1.2,1.,1.2,,0.0,,0.0
1979-08-05 12:05:10.630 ,6,0,0.,1.2,0.,1.2,0.,1.2,,0.0,,0.0
1979-08-05 12:05:11.830 ,6,0,2.,1.2,1.,1.2,0.,1.2,,0.0,,0.0
1979-08-05 12:05:13.030 ,6,0,0.,1.2,0.,1.2,0.,1.2,,0.0,,0.0
1979-08-05 12:05:14.230 ,6,0,1.,1.2,1.,1.2,0.,1.2,,0.0,,0.0
1979-08-05 12:05:15.430 ,6,0,1.,1.2,0.,1.2,0.,1.2,,0.0,,0.0
1979-08-05 12:05:16.630 ,6,0,0.,1.2,0.,1.2,0.,1.2,,0.0,,0.0
1979-08-05 12:05:17.830 ,6,0,0.,1.2,0.,1.2,0.,1.2,,0.0,,0.0
1979-08-05 12:05:19.030 ,6,0,2.,1.2,1.,1.2,0.,1.2,,0.0,,0.0
1979-08-05 12:05:20.230 ,6,0,0.,1.2,0.,1.2,0.,1.2,,0.0,,0.0
1979-08-05 12:05:21.430 ,6,0,0.,1.2,0.,1.2,0.,1.2,,0.0,,0.0
1979-08-05 12:05:22.630 ,6,0,2.,1.2,1.,1.2,0.,1.2,,0.0,,0.0
1979-08-05 12:05:23.830 ,6,0,1.,1.2,0.,1.2,0.,1.2,,0.0,,0.0
1979-08-05 12:05:25.030 ,6,0,1.,1.2,1.,1.2,0.,1.2,,0.0,,0.0
1979-08-05 12:05:26.230 ,6,0,1.,1.2,1.,1.2,1.,1.2,,0.0,,0.0
1979-08-05 12:05:27.430 ,6,0,0.,1.2,0.,1.2,0.,1.2,,0.0,,0.0
1979-08-05 12:05:28.630 ,6,0,1.,1.2,0.,1.2,0.,1.2,,0.0,,0.0
1979-08-05 12:05:29.830 ,6,0,0.,1.2,0.,1.2,0.,1.2,,0.0,,0.0
1979-08-05 12:05:31.030 ,6,0,0.,1.2,0.,1.2,0.,1.2,,0.0,,0.0
1979-08-05 12:05:32.230 ,6,0,1.,1.2,0.,1.2,0.,1.2,,0.0,,0.0
1979-08-05 12:05:33.430 ,7,0,1.,1.2,1.,1.2,0.,1.2,,0.0,,0.0
1979-08-05 12:05:34.630 ,7,0,0.,1.2,0.,1.2,0.,1.2,,0.0,,0.0
1979-08-05 12:05:35.830 ,7,0,0.,1.2,0.,1.2,0.,1.2,,0.0,,0.0
1979-08-05 12:05:37.030 ,7,0,0.,1.2,0.,1.2,0.,1.2,,0.0,,0.0
1979-08-05 12:05:38.230 ,7,0,0.,1.2,0.,1.2,0.,1.2,,0.0,,0.0
1979-08-05 12:05:39.430 ,7,0,0.,1.2,0.,1.2,0.,1.2,,0.0,,0.0
1979-08-05 12:05:40.630 ,7,0,0.,1.2,0.,1.2,0.,1.2,,0.0,,0.0
1979-08-05 12:05:41.830 ,7,0,1.,1.2,0.,1.2,0.,1.2,,0.0,,0.0
1979-08-05 12:05:43.030 ,7,0,0.,1.2,0.,1.2,0.,1.2,,0.0,,0.0
1979-08-05 12:05:44.230 ,7,0,0.,1.2,0.,1.2,0.,1.2,,0.0,,0.0
1979-08-05 12:05:45.430 ,7,0,0.,1.2,0.,1.2,0.,1.2,,0.0,,0.0
1979-08-05 12:05:46.630 ,7,0,0.,1.2,0.,1.2,0.,1.2,,0.0,,0.0
1979-08-05 12:05:47.830 ,7,0,0.,1.2,0.,1.2,0.,1.2,,0.0,,0.0
1979-08-05 12:05:49.030 ,7,0,1.,1.2,1.,1.2,0.,1.2,,0.0,,0.0
1979-08-05 12:05:50.230 ,7,0,0.,1.2,0.,1.2,0.,1.2,,0.0,,0.0
1979-08-05 12:05:51.430 ,7,0,0.,1.2,0.,1.2,0.,1.2,,0.0,,0.0
1979-08-05 12:05:52.630 ,7,0,0.,1.2,0.,1.2,0.,1.2,,0.0,,0.0
1979-08-05 12:05:53.830 ,7,0,0.,1.2,0.,1.2,0.,1.2,,0.0,,0.0
1979-08-05 12:05:55.030 ,7,0,1.,1.2,0.,1.2,0.,1.2,,0.0,,0.0
1979-08-05 12:05:56.230 ,7,0,0.,1.2,0.,1.2,0.,1.2,,0.0,,0.0
1979-08-05 12:05:57.430 ,7,0,0.,1.2,0.,1.2,0.,1.2,,0.0,,0.0
1979-08-05 12:05:58.630 ,7,0,0.,1.2,0.,1.2,0.,1.2,,0.0,,0.0
1979-08-05 12:05:59.830 ,7,0,0.,1.2,0.,1.2,0.,1.2,,0.0,,0.0
1979-08-05 12:06:01.030 ,7,0,0.,1.2,0.,1.2,0.,1.2,,0.0,,0.0
1979-08-05 12:06:02.230 ,7,0,1.,1.2,0.,1.2,0.,1.2,,0.0,,0.0
1979-08-05 12:06:03.430 ,7,0,0.,1.2,0.,1.2,0.,1.2,,0.0,,0.0
1979-08-05 12:06:04.630 ,7,0,0.,1.2,0.,1.2,0.,1.2,,0.0,,0.0
1979-08-05 12:06:05.830 ,7,0,1.,1.2,0.,1.2,0.,1.2,,0.0,,0.0
1979-08-05 12:06:07.030 ,7,0,0.,1.2,0.,1.2,0.,1.2,,0.0,,0.0
1979-08-05 12:06:08.230 ,7,0,1.,1.2,1.,1.2,1.,1.2,,0.0,,0.0
1979-08-05 12:06:09.430 ,7,0,0.,1.2,0.,1.2,0.,1.2,,0.0,,0.0
1979-08-05 12:06:10.630 ,7,0,0.,1.2,0.,1.2,0.,1.2,,0.0,,0.0
1979-08-05 12:06:11.830 ,7,0,1.,1.2,0.,1.2,0.,1.2,,0.0,,0.0
1979-08-05 12:06:13.030 ,7,0,0.,1.2,0.,1.2,0.,1.2,,0.0,,0.0
1979-08-05 12:06:14.230 ,7,0,0.,1.2,0.,1.2,0.,1.2,,0.0,,0.0
1979-08-05 12:06:15.430 ,7,0,0.,1.2,0.,1.2,0.,1.2,,0.0,,0.0
1979-08-05 12:06:16.630 ,7,0,0.,1.2,0.,1.2,0.,1.2,,0.0,,0.0
1979-08-05 12:06:17.830 ,7,0,0.,1.2,0.,1.2,0.,1.2,,0.0,,0.0
1979-08-05 12:06:19.030 ,7,0,0.,1.2,0.,1.2,0.,1.2,,0.0,,0.0
1979-08-05 12:06:20.230 ,7,0,1.,1.2,0.,1.2,0.,1.2,,0.0,,0.0
1979-08-05 12:06:21.430 ,7,0,1.,1.2,1.,1.2,1.,1.2,,0.0,,0.0
1979-08-05 12:06:22.630 ,7,0,0.,1.2,0.,1.2,0.,1.2,,0.0,,0.0
1979-08-05 12:06:23.830 ,7,0,0.,1.2,0.,1.2,0.,1.2,,0.0,,0.0
1979-08-05 12:06:25.030 ,7,0,0.,1.2,0.,1.2,0.,1.2,,0.0,,0.0
1979-08-05 12:06:26.230 ,7,0,0.,1.2,0.,1.2,0.,1.2,,0.0,,0.0
1979-08-05 12:06:27.430 ,7,0,1.,1.2,0.,1.2,0.,1.2,,0.0,,0.0
1979-08-05 12:06:28.630 ,7,0,0.,1.2,0.,1.2,0.,1.2,,0.0,,0.0
1979-08-05 12:06:29.830 ,7,0,0.,1.2,0.,1.2,0.,1.2,,0.0,,0.0
1979-08-05 12:06:31.030 ,7,0,0.,1.2,0.,1.2,0.,1.2,,0.0,,0.0
1979-08-05 12:06:32.230 ,7,0,0.,1.2,0.,1.2,0.,1.2,,0.0,,0.0
1979-08-05 12:06:33.430 ,7,0,0.,1.2,0.,1.2,0.,1.2,,0.0,,0.0
1979-08-05 12:06:34.630 ,7,0,2.,1.2,0.,1.2,0.,1.2,,0.0,,0.0
1979-08-05 12:06:35.830 ,7,0,0.,1.2,0.,1.2,0.,1.2,,0.0,,0.0
1979-08-05 12:06:37.030 ,7,0,0.,1.2,0.,1.2,0.,1.2,,0.0,,0.0
1979-08-05 12:06:38.230 ,7,0,1.,1.2,0.,1.2,0.,1.2,,0.0,,0.0
1979-08-05 12:06:39.430 ,7,0,0.,1.2,0.,1.2,0.,1.2,,0.0,,0.0
1979-08-05 12:06:40.630 ,7,0,1.,1.2,1.,1.2,0.,1.2,,0.0,,0.0
1979-08-05 12:06:41.830 ,7,0,1.,1.2,1.,1.2,0.,1.2,,0.0,,0.0
1979-08-05 12:06:43.030 ,7,0,0.,1.2,0.,1.2,0.,1.2,,0.0,,0.0
1979-08-05 12:06:44.230 ,7,0,0.,1.2,0.,1.2,0.,1.2,,0.0,,0.0
1979-08-05 12:06:45.430 ,7,0,0.,1.2,0.,1.2,0.,1.2,,0.0,,0.0
1979-08-05 12:06:46.630 ,7,0,0.,1.2,0.,1.2,0.,1.2,,0.0,,0.0
1979-08-05 12:06:47.830 ,7,0,3.,1.2,1.,1.2,1.,1.2,,0.0,,0.0
1979-08-05 12:06:49.030 ,7,0,0.,1.2,0.,1.2,0.,1.2,,0.0,,0.0
1979-08-05 12:06:50.230 ,7,0,0.,1.2,0.,1.2,0.,1.2,,0.0,,0.0
1979-08-05 12:06:51.430 ,7,0,1.,1.2,0.,1.2,0.,1.2,,0.0,,0.0
1979-08-05 12:06:52.630 ,7,0,1.,1.2,0.,1.2,0.,1.2,,0.0,,0.0
1979-08-05 12:06:53.830 ,7,0,0.,1.2,0.,1.2,0.,1.2,,0.0,,0.0
1979-08-05 12:06:55.030 ,7,0,0.,1.2,0.,1.2,0.,1.2,,0.0,,0.0
1979-08-05 12:06:56.230 ,7,0,0.,1.2,0.,1.2,0.,1.2,,0.0,,0.0
1979-08-05 12:06:57.430 ,7,0,1.,1.2,1.,1.2,1.,1.2,,0.0,,0.0
1979-08-05 12:06:58.630 ,7,0,1.,1.2,1.,1.2,1.,1.2,,0.0,,0.0
1979-08-05 12:06:59.830 ,7,0,0.,1.2,0.,1.2,0.,1.2,,0.0,,0.0
1979-08-05 12:07:01.030 ,7,0,1.,1.2,0.,1.2,0.,1.2,,0.0,,0.0
1979-08-05 12:07:02.230 ,7,0,0.,1.2,0.,1.2,0.,1.2,,0.0,,0.0
1979-08-05 12:07:03.430 ,7,0,1.,1.2,0.,1.2,0.,1.2,,0.0,,0.0
1979-08-05 12:07:04.630 ,7,0,0.,1.2,0.,1.2,0.,1.2,,0.0,,0.0
1979-08-05 12:07:05.830 ,7,0,1.,1.2,1.,1.2,0.,1.2,,0.0,,0.0
1979-08-05 12:07:07.030 ,7,0,0.,1.2,0.,1.2,0.,1.2,,0.0,,0.0
1979-08-05 12:07:08.230 ,7,0,0.,1.2,0.,1.2,0.,1.2,,0.0,,0.0
1979-08-05 12:07:09.430 ,6,0,0.,1.2,0.,1.2,0.,1.2,,0.0,,0.0
1979-08-05 12:07:10.630 ,6,0,0.,1.2,0.,1.2,0.,1.2,,0.0,,0.0
1979-08-05 12:07:11.830 ,6,0,0.,1.2,0.,1.2,0.,1.2,,0.0,,0.0
1979-08-05 12:07:13.030 ,6,0,1.,1.2,0.,1.2,0.,1.2,,0.0,,0.0
1979-08-05 12:07:14.230 ,6,0,1.,1.2,1.,1.2,0.,1.2,,0.0,,0.0
1979-08-05 12:07:15.430 ,6,0,1.,1.2,1.,1.2,0.,1.2,,0.0,,0.0
1979-08-05 12:07:16.630 ,6,0,1.,1.2,0.,1.2,0.,1.2,,0.0,,0.0
1979-08-05 12:07:17.830 ,6,0,0.,1.2,0.,1.2,0.,1.2,,0.0,,0.0
1979-08-05 12:07:19.030 ,6,0,0.,1.2,0.,1.2,0.,1.2,,0.0,,0.0
1979-08-05 12:07:20.230 ,6,0,0.,1.2,0.,1.2,0.,1.2,,0.0,,0.0
1979-08-05 12:07:21.430 ,6,0,0.,1.2,0.,1.2,0.,1.2,,0.0,,0.0
1979-08-05 12:07:22.630 ,6,0,2.,1.2,0.,1.2,0.,1.2,,0.0,,0.0
1979-08-05 12:07:23.830 ,6,0,0.,1.2,0.,1.2,0.,1.2,,0.0,,0.0
1979-08-05 12:07:25.030 ,6,0,0.,1.2,0.,1.2,0.,1.2,,0.0,,0.0
1979-08-05 12:07:26.230 ,6,0,0.,1.2,0.,1.2,0.,1.2,,0.0,,0.0
1979-08-05 12:07:27.430 ,6,0,0.,1.2,0.,1.2,0.,1.2,,0.0,,0.0
1979-08-05 12:07:28.630 ,6,0,0.,1.2,0.,1.2,0.,1.2,,0.0,,0.0
1979-08-05 12:07:29.830 ,6,0,1.,1.2,0.,1.2,0.,1.2,,0.0,,0.0
1979-08-05 12:07:31.030 ,6,0,0.,1.2,0.,1.2,0.,1.2,,0.0,,0.0
1979-08-05 12:07:32.230 ,6,0,0.,1.2,0.,1.2,0.,1.2,,0.0,,0.0
1979-08-05 12:07:33.430 ,6,0,0.,1.2,0.,1.2,0.,1.2,,0.0,,0.0
1979-08-05 12:07:34.630 ,6,0,1.,1.2,1.,1.2,0.,1.2,,0.0,,0.0
1979-08-05 12:07:35.830 ,6,0,0.,1.2,0.,1.2,0.,1.2,,0.0,,0.0
1979-08-05 12:07:37.030 ,6,0,0.,1.2,0.,1.2,0.,1.2,,0.0,,0.0
1979-08-05 12:07:38.230 ,6,0,0.,1.2,0.,1.2,0.,1.2,,0.0,,0.0
1979-08-05 12:07:39.430 ,6,0,0.,1.2,0.,1.2,0.,1.2,,0.0,,0.0
1979-08-05 12:07:40.630 ,6,0,0.,1.2,0.,1.2,0.,1.2,,0.0,,0.0
1979-08-05 12:07:41.830 ,6,0,0.,1.2,0.,1.2,0.,1.2,,0.0,,0.0
1979-08-05 12:07:43.030 ,6,0,0.,1.2,0.,1.2,0.,1.2,,0.0,,0.0
1979-08-05 12:07:44.230 ,6,0,1.,1.2,0.,1.2,0.,1.2,,0.0,,0.0
1979-08-05 12:07:45.430 ,6,0,0.,1.2,0.,1.2,0.,1.2,,0.0,,0.0
1979-08-05 12:07:46.630 ,6,0,1.,1.2,0.,1.2,0.,1.2,,0.0,,0.0
1979-08-05 12:07:47.830 ,6,0,0.,1.2,0.,1.2,0.,1.2,,0.0,,0.0
1979-08-05 12:07:49.030 ,6,0,0.,1.2,0.,1.2,0.,1.2,,0.0,,0.0
1979-08-05 12:07:50.230 ,6,0,0.,1.2,0.,1.2,0.,1.2,,0.0,,0.0
1979-08-05 12:07:51.430 ,6,0,1.,1.2,1.,1.2,0.,1.2,,0.0,,0.0
1979-08-05 12:07:52.630 ,6,0,0.,1.2,0.,1.2,0.,1.2,,0.0,,0.0
1979-08-05 12:07:53.830 ,6,0,1.,1.2,1.,1.2,0.,1.2,,0.0,,0.0
1979-08-05 12:07:55.030 ,6,0,1.,1.2,1.,1.2,0.,1.2,,0.0,,0.0
1979-08-05 12:07:56.230 ,6,0,0.,1.2,0.,1.2,0.,1.2,,0.0,,0.0
1979-08-05 12:07:57.430 ,5,0,0.,1.2,0.,1.2,0.,1.2,,0.0,,0.0
1979-08-05 12:07:58.630 ,5,0,1.,1.2,1.,1.2,0.,1.2,,0.0,,0.0
1979-08-05 12:07:59.830 ,5,0,0.,1.2,0.,1.2,0.,1.2,,0.0,,0.0
1979-08-05 12:08:01.030 ,5,0,1.,1.2,0.,1.2,0.,1.2,,0.0,,0.0
1979-08-05 12:08:02.230 ,5,0,1.,1.2,0.,1.2,0.,1.2,,0.0,,0.0
1979-08-05 12:08:03.430 ,5,0,0.,1.2,0.,1.2,0.,1.2,,0.0,,0.0
1979-08-05 12:08:04.630 ,5,0,0.,1.2,0.,1.2,0.,1.2,,0.0,,0.0
1979-08-05 12:08:05.830 ,5,0,1.,1.2,1.,1.2,1.,1.2,,0.0,,0.0
1979-08-05 12:08:07.030 ,5,0,1.,1.2,1.,1.2,0.,1.2,,0.0,,0.0
1979-08-05 12:08:08.230 ,5,0,0.,1.2,0.,1.2,0.,1.2,,0.0,,0.0
1979-08-05 12:08:09.430 ,5,0,0.,1.2,0.,1.2,0.,1.2,,0.0,,0.0
1979-08-05 12:08:10.630 ,5,0,0.,1.2,0.,1.2,0.,1.2,,0.0,,0.0